Location: Meckenbeuren
(47.6991°N, 9.5621°E)
Time: 06:37:08
(UTC+00:00)

Daily predictions for brighter satellites

Satellite Brightness Start Highest point End
(mag) Time Altitude Azimuth Time Altitude Azimuth Time Altitude Azimuth
Ariane Rocket 3.1 19:54:52 10° SSE 19:59:58 83° ENE 20:05:06 10° NNW
USA 267 4.2 19:55:39 10° ENE 20:00:42 23° SE 20:05:42 10° S
Cosmos 1954 Rocket 4.3 19:56:30 10° NNW 20:01:44 56° ENE 20:06:52 10° SE
PSLV R/B 4.2 20:02:37 10° N 20:06:46 78° WNW 20:10:55 10° SSW
Cosmos 1980 Rocket 4.4 20:04:32 10° N 20:07:39 15° NE 20:10:44 10° ENE
NOSS 2-1 (D) 4.4 20:03:32 10° NNW 20:07:48 55° NE 20:13:45 10° SE
S3M 4.2 20:02:37 10° SSW 20:08:49 77° W 20:15:00 10° N
Cosmos 1953 4.3 20:07:25 10° NNW 20:10:47 27° W 20:14:08 10° SSW
Cosmos 1697 Rocket 4.4 20:06:31 10° N 20:10:56 23° NE 20:15:19 10° E
Meteor 2-10 Rocket 4.1 20:06:44 10° NNW 20:11:41 57° W 20:16:34 10° S
SPOT 5 3.3 20:07:39 10° SE 20:11:48 41° ENE 20:15:53 10° N
Cosmos 2369 Rocket 4.5 20:07:57 10° NW 20:11:50 20° W 20:15:45 10° SW
H-2A R/B 2.8 20:09:02 10° N 20:13:22 61° WNW 20:17:46 10° SSW
Tiangong 2.3 20:13:01 10° WSW 20:15:43 25° S 20:18:23 10° SE
Cosmos 1975 Rocket 3.1 20:11:40 10° S 20:16:08 86° E 20:20:35 10° N
CARTOSAT-1 3.6 20:13:24 10° SSE 20:17:43 87° E 20:22:04 10° NNW
IRAS Rocket 4.3 20:14:26 10° NNE 20:20:05 75° ESE 20:25:38 10° SSW
Cosmos 2084 3.2 20:17:20 10° SSW 20:21:07 57° SE 20:24:55 10° NE
Cosmos 1656 4.3 20:16:02 10° NNW 20:21:15 44° NE 20:26:29 10° SE
USA 276 2.3 20:26:15 10° SW 20:29:07 42° SSE 20:31:59 10° E
Spot 2 Rocket 3.6 20:25:49 10° SSE 20:30:51 67° ENE 20:35:57 10° N
ATLAS 2AS CENTAUR R/B 2.8 20:24:31 10° NW 20:31:44 89° NE 20:37:59 12° SE
Meteor 1-24 Rocket 3.6 20:28:19 10° S 20:33:38 88° E 20:39:06 10° NNE
Cosmos 1544 Rocket 3.5 20:29:17 10° N 20:33:38 78° E 20:37:54 10° SSE
Cosmos 1371 Rocket 4.2 20:30:52 10° SSW 20:36:05 79° WNW 20:41:25 10° NNE
USA 234 4.1 20:30:03 10° E 20:36:19 50° NNE 20:42:36 10° NW
Lacrosse 5 1.9 20:31:12 10° NW 20:36:20 87° SW 20:40:57 13° SE
Cosmos 1452 Rocket 4.2 20:32:08 10° SSE 20:36:51 34° ESE 20:41:34 10° NE
X-37B 0.9 20:36:28 10° SW 20:39:05 36° SSE 20:41:43 10° E
Cosmos 1833 Rocket 3.8 20:36:05 12° SSE 20:40:03 24° ESE 20:44:27 10° NE
Terra 2.1 20:38:02 13° SSE 20:42:14 58° ENE 20:46:54 10° N
Cosmos 2184 Rocket 4.2 20:40:24 10° N 20:46:30 59° ENE 20:51:50 14° SSE
Resurs 01 Rocket 3.7 20:45:29 10° SSW 20:49:05 24° W 20:52:43 10° NW
Cosmos 724 4.2 20:46:17 10° SSW 20:52:02 68° ESE 20:57:48 10° NE
Helios 1A Rocket 3.0 20:51:31 13° S 20:55:05 77° WSW 20:59:11 10° NNW
CZ-4B R/B 3.8 20:53:24 10° NNW 20:55:34 19° WNW 20:57:43 10° WSW
Lacrosse 5 rocket 2.3 20:55:49 10° WNW 20:59:20 33° SW 21:01:56 16° S
Cosmos 1271 Rocket 3.3 20:57:01 10° NNW 21:00:56 55° W 21:04:25 12° S
Cosmos 2082 Rocket 3.9 21:01:01 13° ESE 21:03:02 16° E 21:06:19 10° ENE
NOSS 2-1 (E) 4.2 21:01:44 10° NW 21:06:22 69° SW 21:11:18 17° SSE
ERS-1 Rocket 3.2 21:03:41 13° S 21:08:06 68° WSW 21:13:09 10° NNW
RESURS DK-1 2.7 21:06:21 10° NNW 21:10:27 57° ENE 21:13:07 20° SE
CZ-2C R/B 3.7 21:12:08 10° NNE 21:16:46 83° WNW 21:21:17 10° SSW
ARIANE 5 R/B 2.7 21:18:10 20° S 21:21:18 81° WSW 21:25:46 10° NNW
Cosmos 1741 Rocket 4.0 21:16:53 10° NNW 21:22:15 89° ENE 21:25:51 21° SSE
Cosmos 2344 4.4 21:19:22 10° NW 21:28:04 72° NE 21:38:57 14° SE
SL-8 R/B 3.6 21:24:16 10° WNW 21:29:05 85° SSW 21:33:28 13° ESE
GP-B 3.9 21:27:41 10° NNE 21:31:49 37° E 21:33:53 24° SE
Cosmos 1455 4.2 21:28:50 10° NW 21:31:56 24° W 21:35:01 10° SW
Cosmos 2074 Rocket 4.4 21:28:50 10° NNW 21:35:01 62° W 21:40:09 15° S
ASTEX 1 3.7 21:35:04 10° NNE 21:40:00 55° E 21:42:46 25° SSE
COSMOS 2406 3.7 21:37:53 22° SSE 21:41:08 43° ESE 21:46:33 10° NE
Cosmos 2369 4.2 21:38:42 10° NNW 21:44:21 55° ENE 21:48:09 21° SE
USA 267 3.2 21:37:51 10° NE 21:44:25 75° SE 21:50:58 10° SW
SL-16 R/B 4.3 21:41:05 10° N 21:45:09 19° NE 21:49:10 10° E
Cosmos 2228 3.6 21:45:30 10° NNW 21:49:36 50° W 21:52:05 22° SSW
Tiangong 3.6 21:50:12 10° SW 21:50:36 11° SW 21:50:36 11° SW
Nadezhda 1 Rocket 4.0 21:47:09 16° SSW 21:52:13 77° W 21:58:19 10° N
Cosmos 1980 Rocket 2.6 21:47:21 10° NNW 21:52:59 56° ENE 21:56:37 22° SE
Cosmos 1606 Rocket 3.6 21:50:24 10° NNW 21:54:43 69° W 21:56:56 28° S
Cosmos 1697 Rocket 2.7 21:49:55 10° NNW 21:55:34 78° WSW 21:58:44 27° SSE
Cosmos 1892 3.3 21:55:58 32° SE 21:56:56 39° E 22:00:28 10° NNE
SJ 16-02 4.0 21:56:38 10° NNE 21:58:10 12° NE 21:59:43 10° ENE
Cosmos 2154 Rocket 4.4 21:53:44 10° NNW 21:59:50 57° W 22:04:14 19° SSW
Meteor 1-11 4.3 21:57:30 26° SSE 22:00:35 60° E 22:06:06 10° NNE
Cosmos 2084 Rocket 3.7 21:56:46 10° NW 22:00:36 55° NE 22:02:43 25° ESE
USA 276 2.5 22:01:46 10° W 22:04:45 60° N 22:07:44 10° ENE
Cosmos 1328 4.1 22:04:05 25° SSW 22:06:15 65° W 22:10:16 10° N
Cosmos 1331 Rocket 4.2 22:04:07 14° SSW 22:08:39 72° WNW 22:13:59 10° NNE
X-37B 1.9 22:11:37 10° W 22:12:57 24° WSW 22:12:57 24° WSW
Cosmos 1408 2.3 22:15:25 48° S 22:16:16 82° E 22:19:44 10° N
Lacrosse 5 3.5 22:15:08 10° WNW 22:18:42 19° WSW 22:20:08 17° SW
USA 234 3.2 22:14:25 21° SE 22:19:07 79° SW 22:25:43 10° NW
Cosmos 1726 Rocket 4.1 22:15:17 10° NNW 22:19:27 49° W 22:21:23 28° SSW
Terra 3.9 22:17:00 10° SW 22:20:20 19° W 22:23:42 10° NW
ATLAS 2AS CENTAUR R/B 4.3 22:16:44 10° WNW 22:21:40 21° WSW 22:25:25 13° SSW
Cosmos 1833 Rocket 3.2 22:18:00 10° SW 22:23:32 60° WNW 22:29:07 10° NNE
Cosmos 2322 Rocket 4.0 22:19:55 10° N 22:24:34 25° NE 22:29:13 10° E
Cosmos 1867 3.7 22:22:38 10° NW 22:28:08 73° NE 22:31:17 26° SE
Cosmos 2278 4.0 22:23:24 10° NNW 22:29:07 64° ENE 22:32:24 25° SE
ATLAS 5 CENTAUR R/B 2.8 22:30:25 20° ESE 22:30:25 20° ESE 22:32:52 10° ENE
SL-8 Rocket 4.0 22:24:07 10° N 22:30:24 83° W 22:33:46 29° S
Cosmos 1812 Rocket 4.5 22:28:27 10° N 22:32:41 39° ENE 22:34:25 28° ESE
ALOS 2 2.7 22:32:45 37° SE 22:34:25 69° ENE 22:38:49 10° N
Cosmos 1302 Rocket 4.0 22:31:55 26° SSW 22:34:57 85° WNW 22:40:11 10° NNE
Cosmos 2218 Rocket 4.1 22:36:03 10° N 22:42:29 80° W 22:45:53 30° S
Cosmos 2366 rocket 4.1 22:39:55 10° NNW 22:46:15 76° W 22:49:35 30° S
Cosmos 2082 Rocket 2.2 22:42:49 25° SSW 22:46:19 88° WNW 22:52:04 10° NNE
Cosmos 1602 Rocket 3.9 22:45:32 38° SE 22:46:42 50° E 22:50:54 10° NNE
RESURS DK-1 4.4 22:45:27 10° WNW 22:47:59 16° WSW 22:48:58 15° WSW
H-2A R/B 3.4 22:45:36 10° NNE 22:49:50 83° ESE 22:51:09 43° S
Cosmos 2058 Rocket 4.0 22:49:21 10° NNW 22:53:25 38° W 22:55:04 27° SW
Spot 4 4.3 22:52:43 33° SSW 22:54:31 50° W 22:59:12 10° NNW
Cosmos 1825 2.3 22:58:50 46° SW 22:59:45 66° W 23:03:30 10° N
Cosmos 2360 Rocket 3.8 22:59:13 10° NNW 23:04:15 31° NE 23:09:14 10° ESE
ERS-2 2.1 23:01:53 10° NNE 23:05:27 59° ESE 23:05:53 53° SE
Cosmos 968 Rocket 4.3 23:00:45 10° NW 23:05:31 38° WSW 23:07:22 28° SW
Cosmos-2242 3.0 23:02:45 10° N 23:07:00 68° E 23:08:16 43° SSE
SL-8 R/B 4.3 23:06:56 10° W 23:11:20 35° SSW 23:11:22 35° SSW
Cosmos 1626 Rocket 3.8 23:10:22 36° SW 23:11:55 59° WNW 23:16:13 10° N
Cosmos 1869 4.0 23:12:42 10° NNW 23:16:19 39° W 23:17:08 34° WSW
Cosmos 2058 3.7 23:16:21 34° SE 23:17:22 41° E 23:21:20 10° NNE
Cosmos 1606 2.9 23:13:35 10° N 23:17:24 61° ENE 23:18:18 45° SE
BREEZE-M DEB (TANK) 4.1 23:14:23 10° WNW 23:18:02 89° NNE 23:33:56 10° ESE
Cosmos 1934 Rocket 4.5 23:13:00 10° N 23:18:55 51° ENE 23:22:23 24° SE
Cosmos 1825 Rocket 3.9 23:22:58 40° SE 23:24:08 54° E 23:28:22 10° NNE
ADEOS Rocket 3.7 23:20:28 29° SSW 23:24:16 59° W 23:31:49 10° NNW
COSMOS 2406 4.5 23:20:12 10° WSW 23:25:31 37° NW 23:30:52 10° NNE
Cosmos 1633 2.6 23:25:15 54° SW 23:25:46 63° W 23:29:14 10° N
USA 267 4.1 23:20:59 10° NE 23:27:16 51° NNW 23:33:33 10° W
SL-16 R/B 2.2 23:24:25 10° NNW 23:30:08 84° ENE 23:33:07 29° SSE
Meteor 2-20 4.5 23:32:16 31° SSW 23:35:20 74° W 23:41:28 10° N
Cosmos 1980 Rocket 3.5 23:31:58 10° NW 23:36:36 26° WSW 23:38:21 22° SW
SJ 16-02 1.4 23:33:06 10° NNW 23:37:33 75° ENE 23:39:12 38° SE
USA 276 2.4 23:37:41 10° WNW 23:40:40 60° N 23:43:39 10° E
Meteor 2-2 Rocket 4.4 23:36:46 10° N 23:42:47 80° ENE 23:45:55 30° SSE
Cosmos 1821 Rocket 4.2 23:36:51 10° NNW 23:42:59 58° W 23:45:54 31° SSW
Cosmos 2219 Rocket 4.0 23:39:43 10° NNW 23:44:37 29° NE 23:49:30 10° ESE
Cosmos 1340 Rocket 3.0 23:48:44 45° SSE 23:49:37 57° E 23:53:30 10° NNE
CZ-2D R/B 4.1 23:47:12 10° NE 23:50:37 17° E 23:53:35 11° SE
